Погода Минеральные Воды

Погода Минеральные Воды : погода сейчас, прогноз погоды и архив. Всё, что Вы хотите узнать о погоде Минеральные Воды!

Поиск расширенной информации на нашем сайте:

Другие новости

Новости СМИ2

Главная страница сайта

Новости сайта

03.07.2017

Напоминаем, что на нашем специализированном сайте Метеоцентр.Азия вы можете получить высокодетализированные автоматические прогнозы погоды по пунктам России, СНГ и мира в авиационном формате (включающие направление и скорость ветра, видимость, явления погоды, количество и форму облачности, нижнюю и верхнюю границу облачности).


Погода Минеральные Воды - сегодня

Время (UTC), дата Ветер
(°,м/с) 
Видим.   Явления Облачность Т
(°С)
Тd
(°С)
f(%) Тe
(°С)
Pmin
(гПа)
dP
(гПа)
Po
(мм)
O2
(г/м3)
Тmin Tmax R s Состояние
почвы
09 13.01.18 270 (З) 4000 м  слаб. ливневой снег  10/10 300 м кучево-дожд. 
[Cb cap]
-6.5 -7.3 94 -11  1030.7  -0.4  744  308           
12 13.01.18 090 (В) 4000 м  слаб. ливневой снег  10/10 300 м кучево-дожд. 
[Cb cap]
-7.1 -8 93 -11  1030.8  0.1  744  309           
15 13.01.18 090 (В) 4000 м  слаб. ливневой снег  10/10 300 м кучево-дожд. 
[Cb cap]
-8 -9 93 -12  1032.2  1.4  745  310    -6.5     
18 13.01.18 090 (В) 4000 м  слаб. ливневой снег  10/10 300 м кучево-дожд. 
[Cb cap]
-8.2 -9.2 92 -12  1032.1  -0.1  745  311           
21 13.01.18 090 (В) 4000 м  слаб. ливневой снег  10/10 300 м кучево-дожд. 
[Cb cap]
-9 -10.1 92 -14  1031.4  -0.7  745  311           
00 14.01.18 090 (В) 4000 м  дымка{ливн. осадки}  10/10 300 м 
[Sc]
-9.2 -10.1 93 -15  1030.2  -1.2  744  311           
03 14.01.18 100 (В) 4000 м  слаб. ливневой снег  10/10 300 м кучево-дожд. 
[Cb cap]
-9.4 -10.6 91 -16  1029.8  -0.4  744  311  -1       
06 14.01.18 110 (В) 4000 м  слаб. ливневой снег  10/10 300 м кучево-дожд. 
[Cb cap]
-8.4 -9.5 92 -14  1029.7  744  310           
09 14.01.18 120 (ЮВ) 4000 м  слаб. снег{ливн. осадки}  10/10 300 м 
[Frnb|Ns]
-5.6 -6 97 -11  1028.2  -1.6  742  306           
12 14.01.18 090 (В) 10  10 км  слаб. снег{ливн. осадки}  10/10 300 м 
[Frnb|Ns]
-6.2 -6.6 97 -13  1028.1  -0.1  742  307           
15 14.01.18 120 (ЮВ) 4000 м  снег  10/10 300 м 
[Frnb|Ns]
-6.8 -8.4 88 -13  1028.6  0.5  743  308    -5.3     
18 14.01.18 090 (В) 9{11}  10 км  снег  10/10 300 м 
[Frnb|Ns]
-7.1 -8.4 90 -13  1028.5  -0.1  743  308           
21 14.01.18 090 (В) 4000 м  слаб. снег  10/10 300 м 
[Frnb|Ns]
-7.4 -8 95 -13  1028.2  -0.3  742  308           
00 15.01.18 120 (ЮВ) 4000 м  дымка{снег}  10/10 300 м 
[St]
-6.9 -7.4 96 -12  1028.1  0.1  742  308           
03 15.01.18 120 (ЮВ) 4000 м  дымка  10/10 300 м 
[St]
-6.4 -7.2 94 -10  1028.3  0.2  743  307  -7.4    0.7     
06 15.01.18 090 (В) 4000 м  дымка  10/10 300 м 
[St]
-6.2 -7.4 91 -10  1029.2  0.7  743  307           
09 15.01.18 140 (ЮВ) 4000 м  дымка  10/10 300 м 
[Frnb|Ns]
-5.2 -6.2 93 -9  1029.5  0.3  743  306           
12 15.01.18 110 (В) 4000 м  дымка  10/10 300 м 
[Frnb|Ns]
-4 -4.8 94 -7  1020.8  0.3  744  305           
15 15.01.18 090 (В) 10 км    10/10 300 м 
[Sc]
-4.3 -5.2 93 -7  1031.2  1.4  745  305    -4       
18 15.01.18 090 (В) 10 км    10/10 300 м 
[Sc]
-4 -4.8 94 -7  1031.3  745  305           
21 15.01.18 090 (В) 4000 м  дымка  10/10 300 м 
[Sc]
-3.4 -4.2 94 -5  1031.3  0.1  745  304           
00 16.01.18 080 (В) 4000 м  дымка  10/10 300 м 
[St]
-4.5 -5.1 96 -7  1031.1  -0.2  745  306           
03 16.01.18 090 (В) 4000 м  слаб. ливневой снег  10/10 300 м кучево-дожд. 
[Cb cap]
-5 -5.6 96 -7  1030.5  -0.6  744  306  -6    0.3     
06 16.01.18 060 (СВ) 2000 м  слаб. ливневой снег  10/10 300 м кучево-дожд. 
[Cb cap]
-5.2 -5.9 95 -7  1030.4  -0.1  744  306           
09 16.01.18 070 (В) 10 км  {ливн. осадки}  10/10 300 м 
[Sc]
-4.8 -5.4 96 -7  1028.9  -1.5  743  305           
Время (UTC), дата Ветер
(°,м/с) 
Видим.   Явления Облачность Т
(°С)
Тd
(°С)
f(%) Тe
(°С)
Pmin
(гПа)
dP
(гПа)
Po
(мм)
O2
(г/м3)
Тmin Tmax R s Состояние
почвы

Для получения пояснительной информации подведите курсор к названию столбца.

ПОГОДА Минеральные Воды - архив

Всё, что Вы хотите узнать о погоде Минеральные Воды - удобно и подробно!

Выберите нужную дату (начиная с 1 января 2015* года) и нажмите кнопку "Найти".
Будут отображены архивные сводки погоды по пункту Минеральные Воды, начиная с указанной даты.


Отображать данные в формате CSV (для использования в таблицах Excel)


Внимание! Наш архив погоды предназначен исключительно для личного некоммерческого использования в познавательных целях. Если Вам необходимы официальные справки о состоянии погоды (для производственных, юридических, коммерческих и т.п. целей), обращайтесь в органы Росгидромета.

*Примечание: данная дата относится к архиву по метеостанциям СССР (Россия, СНГ, Балтия).
Архив по метеостанциям Зарубежной Европы и Азии (кроме Китая) хранится 10 дней, по другим регионам земного шара (Китай, Африка, Америка, Австралия, Океания) - 1 день.

Минеральные Воды - район местоположения метеостанции


Название, широта, долгота, высота метеостанции:
Минеральные Воды 44.2°ш. 43.1°д. 316 м над ур. моря [Российская Федерация]

Дополнительная информация

В oтличие oт бoльшинства пoгoдных сайтoв мы публикуем пoдрoбную метеoинфoрмацию в детальнoм прoфессиoнальнoм фoрмате.

Характеристики температуры и влажнoсти вoздуха измеряются на высoте 2 м в тени вдали oт зданий и деревьев.
Скoрoсть ветра измеряется на высoте 10 м (на урoвне рoста челoвека скoрoсть ветра ниже в 1.5-2 раза). Если метеoстанция нахoдится в гoрoде или в лесу, тo скoрoсть ветра занижена на 2-4 м/с пo сравнению с oткрытым местoм. Скoрoсть ветра над акватoриями крупных рек и oзёр, а также на вершинах хoлмoв на 2-5 м/с выше, чем в oбычных услoвиях.
Атмoсфернoе давление в разных тoчках местнoсти мoжет значительнo oтличаться oт давления на метеoстанции, в зависимoсти oт услoвий рельефа (при пoдъёме на 10 м давление пoнижается примернo на 1 мм рт.ст.).